AIQ3421 VTBD-VTCC

Flight info

Callsign AIQ3421
Flight time 0h 54m
Altitude 36000
Route OLVUK3C OLVUK Y26 MARNI MARNI2A
Aircraft A320/M-SDE3FGHIRWY/LB1

Departure

Time 2026-04-28 18:47
Airport Don Mueang International Airport (VTBD)

Arrival

Time 2026-04-28 19:41
Airport Chiang Mai International Airport (VTCC)
Time Latitude Longitude Altitude Speed Heading
2026-04-28 18:16 13.90700 100.59689 18 ft 0 kts 298°
2026-04-28 18:34 13.90699 100.59691 17 ft 2 kts 298°
2026-04-28 18:35 13.90688 100.59709 20 ft 3 kts 308°
2026-04-28 18:35 13.90675 100.59724 20 ft 3 kts 320°
2026-04-28 18:35 13.90658 100.59736 19 ft 3 kts 335°
2026-04-28 18:35 13.90640 100.59743 19 ft 3 kts 354°
2026-04-28 18:36 13.90621 100.59742 18 ft 3 kts 22°
2026-04-28 18:36 13.90615 100.59740 19 ft 0 kts 28°
2026-04-28 18:38 13.90623 100.59744 18 ft 4 kts 29°
2026-04-28 18:38 13.90652 100.59761 17 ft 7 kts 28°
2026-04-28 18:38 13.90706 100.59791 17 ft 11 kts 28°
2026-04-28 18:39 13.90775 100.59830 17 ft 11 kts 28°
2026-04-28 18:39 13.90840 100.59867 17 ft 10 kts 33°
2026-04-28 18:39 13.90888 100.59937 18 ft 13 kts 58°
2026-04-28 18:39 13.90951 100.60000 17 ft 12 kts 32°
2026-04-28 18:40 13.91016 100.60048 17 ft 12 kts 38°
2026-04-28 18:40 13.91094 100.60102 20 ft 13 kts 30°
2026-04-28 18:40 13.91169 100.60145 17 ft 12 kts 28°
2026-04-28 18:40 13.91238 100.60184 17 ft 11 kts 28°
2026-04-28 18:41 13.91314 100.60226 19 ft 15 kts 28°
2026-04-28 18:41 13.91398 100.60273 17 ft 13 kts 28°
2026-04-28 18:41 13.91474 100.60316 17 ft 12 kts 28°
2026-04-28 18:41 13.91547 100.60356 19 ft 14 kts 28°
2026-04-28 18:42 13.91644 100.60411 29 ft 15 kts 28°
2026-04-28 18:42 13.91734 100.60461 17 ft 14 kts 28°
2026-04-28 18:42 13.91815 100.60507 17 ft 13 kts 28°
2026-04-28 18:42 13.91899 100.60554 17 ft 16 kts 28°
2026-04-28 18:43 13.92013 100.60618 18 ft 23 kts 28°
2026-04-28 18:43 13.92157 100.60699 18 ft 24 kts 28°
2026-04-28 18:43 13.92305 100.60782 18 ft 24 kts 28°
2026-04-28 18:43 13.92457 100.60867 18 ft 26 kts 28°
2026-04-28 18:44 13.92584 100.60938 18 ft 19 kts 28°
2026-04-28 18:44 13.92673 100.61051 19 ft 10 kts 117°
2026-04-28 18:44 13.92632 100.61126 19 ft 14 kts 119°
2026-04-28 18:45 13.92582 100.61220 16 ft 16 kts 119°
2026-04-28 18:45 13.92525 100.61326 17 ft 18 kts 119°
2026-04-28 18:45 13.92471 100.61425 18 ft 14 kts 118°
2026-04-28 18:45 13.92430 100.61499 14 ft 8 kts 123°
2026-04-28 18:46 13.92398 100.61519 14 ft 5 kts 181°
2026-04-28 18:46 13.92348 100.61494 15 ft 19 kts 208°
2026-04-28 18:46 13.92004 100.61303 17 ft 91 kts 208°
2026-04-28 18:46 13.91283 100.60899 17 ft 146 kts 208°
2026-04-28 18:47 13.90276 100.60331 340 ft 166 kts 207°
2026-04-28 18:47 13.89280 100.59772 1071 ft 165 kts 207°
2026-04-28 18:47 13.88290 100.59200 1777 ft 163 kts 216°
2026-04-28 18:47 13.87744 100.58194 2399 ft 170 kts 262°
2026-04-28 18:48 13.88009 100.56992 3034 ft 176 kts 289°
2026-04-28 18:48 13.88488 100.55793 3436 ft 190 kts 289°
2026-04-28 18:48 13.89013 100.54444 3692 ft 215 kts 289°
2026-04-28 18:48 13.89594 100.52934 4056 ft 240 kts 289°
2026-04-28 18:49 13.90238 100.51260 4481 ft 262 kts 289°
2026-04-28 18:49 13.90467 100.50663 4702 ft 266 kts 290°
2026-04-28 18:49 13.91617 100.47670 6016 ft 275 kts 291°
2026-04-28 18:49 13.92324 100.45825 6795 ft 280 kts 291°
2026-04-28 18:50 13.93034 100.43952 7627 ft 283 kts 291°
2026-04-28 18:50 13.93749 100.42054 8414 ft 287 kts 291°
2026-04-28 18:50 13.94475 100.40126 9225 ft 290 kts 291°
2026-04-28 18:50 13.95213 100.38180 9999 ft 294 kts 291°
2026-04-28 18:51 13.96047 100.36185 10337 ft 316 kts 300°
2026-04-28 18:51 13.97459 100.34368 10657 ft 334 kts 318°
2026-04-28 18:51 13.99424 100.33064 11263 ft 342 kts 336°
2026-04-28 18:51 14.01743 100.32439 11935 ft 348 kts 352°
2026-04-28 18:52 14.04155 100.32154 12626 ft 351 kts 352°
2026-04-28 18:52 14.06598 100.31874 13305 ft 355 kts 352°
2026-04-28 18:52 14.09067 100.31590 13930 ft 359 kts 352°
2026-04-28 18:52 14.11562 100.31300 14518 ft 362 kts 352°
2026-04-28 18:53 14.14073 100.31006 15104 ft 365 kts 352°
2026-04-28 18:53 14.16612 100.30706 15699 ft 368 kts 351°
2026-04-28 18:53 14.19162 100.30405 16292 ft 371 kts 351°
2026-04-28 18:53 14.21731 100.30107 16867 ft 373 kts 351°
2026-04-28 18:54 14.24327 100.29808 17455 ft 376 kts 351°
2026-04-28 18:54 14.26937 100.29509 18026 ft 379 kts 351°
2026-04-28 18:54 14.29567 100.29205 18504 ft 382 kts 351°
2026-04-28 18:54 14.32215 100.28893 18997 ft 384 kts 351°
2026-04-28 18:55 14.34882 100.28576 19490 ft 386 kts 351°
2026-04-28 18:55 14.36653 100.28367 19832 ft 388 kts 351°
2026-04-28 18:55 14.40246 100.27947 20503 ft 390 kts 351°
2026-04-28 18:55 14.42952 100.27632 20993 ft 392 kts 351°
2026-04-28 18:56 14.45631 100.27320 21455 ft 394 kts 350°
2026-04-28 18:56 14.48343 100.26758 21916 ft 393 kts 340°
2026-04-28 18:56 14.50957 100.25922 22381 ft 395 kts 340°
2026-04-28 18:56 14.53587 100.25074 22853 ft 397 kts 340°
2026-04-28 18:57 14.56190 100.24230 23295 ft 399 kts 340°
2026-04-28 18:57 14.58842 100.23369 23692 ft 401 kts 340°
2026-04-28 18:57 14.61509 100.22502 24054 ft 403 kts 340°
2026-04-28 18:57 14.64198 100.21631 24413 ft 406 kts 340°
2026-04-28 18:58 14.66899 100.20756 24767 ft 408 kts 340°
2026-04-28 18:58 14.69616 100.19865 25126 ft 410 kts 339°
2026-04-28 18:58 14.72343 100.18959 25490 ft 412 kts 339°
2026-04-28 18:58 14.75077 100.18045 25863 ft 414 kts 339°
2026-04-28 18:59 14.77825 100.17124 26220 ft 416 kts 339°
2026-04-28 18:59 14.80593 100.16197 26573 ft 419 kts 339°
2026-04-28 18:59 14.83373 100.15271 26906 ft 421 kts 339°
2026-04-28 18:59 14.86165 100.14343 27240 ft 424 kts 339°
2026-04-28 19:00 14.88983 100.13408 27575 ft 426 kts 339°
2026-04-28 19:00 14.90853 100.12786 27799 ft 427 kts 339°
2026-04-28 19:00 14.93691 100.11841 28139 ft 430 kts 339°
2026-04-28 19:00 14.96543 100.10891 28460 ft 432 kts 339°
2026-04-28 19:01 14.99411 100.09935 28781 ft 435 kts 339°
2026-04-28 19:01 15.02300 100.08971 29096 ft 437 kts 338°
2026-04-28 19:01 15.05200 100.08001 29412 ft 439 kts 338°
2026-04-28 19:01 15.08117 100.07028 29722 ft 442 kts 338°
2026-04-28 19:02 15.11055 100.06048 29999 ft 444 kts 338°
2026-04-28 19:02 15.14001 100.05067 30270 ft 446 kts 339°
2026-04-28 19:02 15.16955 100.04085 30556 ft 446 kts 339°
2026-04-28 19:02 15.19913 100.03100 30850 ft 447 kts 339°
2026-04-28 19:03 15.22879 100.02110 31138 ft 448 kts 339°
2026-04-28 19:03 15.25843 100.01120 31467 ft 447 kts 339°
2026-04-28 19:03 15.28791 100.00136 31904 ft 444 kts 339°
2026-04-28 19:03 15.31719 99.99160 32349 ft 441 kts 339°
2026-04-28 19:04 15.34592 99.98201 32789 ft 438 kts 338°
2026-04-28 19:04 15.37480 99.97236 33219 ft 435 kts 338°
2026-04-28 19:04 15.40348 99.96274 33656 ft 432 kts 338°
2026-04-28 19:04 15.43200 99.95320 34038 ft 430 kts 338°
2026-04-28 19:05 15.46055 99.94365 34303 ft 431 kts 338°
2026-04-28 19:05 15.48906 99.93414 34589 ft 431 kts 338°
2026-04-28 19:05 15.51754 99.92463 34872 ft 430 kts 338°
2026-04-28 19:05 15.54603 99.91512 35160 ft 429 kts 338°
2026-04-28 19:06 15.57442 99.90562 35436 ft 429 kts 338°
2026-04-28 19:06 15.60276 99.89614 35706 ft 428 kts 338°
2026-04-28 19:06 15.63109 99.88664 35812 ft 427 kts 338°
2026-04-28 19:06 15.65923 99.87723 35822 ft 423 kts 338°
2026-04-28 19:07 15.71500 99.85849 35826 ft 421 kts 338°
2026-04-28 19:07 15.77072 99.83977 35823 ft 420 kts 338°
2026-04-28 19:08 15.82666 99.82096 35822 ft 423 kts 338°
2026-04-28 19:08 15.88256 99.80218 35820 ft 422 kts 338°
2026-04-28 19:09 15.93847 99.78337 35834 ft 422 kts 338°
2026-04-28 19:09 15.99439 99.76456 35830 ft 422 kts 338°
2026-04-28 19:10 16.05033 99.74577 35824 ft 422 kts 338°
2026-04-28 19:10 16.10623 99.72696 35829 ft 422 kts 338°
2026-04-28 19:11 16.16216 99.70813 35818 ft 424 kts 339°
2026-04-28 19:11 16.21803 99.68928 35802 ft 426 kts 339°
2026-04-28 19:12 16.27445 99.67026 35807 ft 427 kts 339°
2026-04-28 19:12 16.33102 99.65115 35808 ft 427 kts 339°
2026-04-28 19:13 16.38760 99.63205 35808 ft 428 kts 339°
2026-04-28 19:13 16.44425 99.61288 35809 ft 428 kts 339°
2026-04-28 19:14 16.50095 99.59374 35814 ft 429 kts 339°
2026-04-28 19:14 16.55793 99.57456 35805 ft 431 kts 340°
2026-04-28 19:15 16.61504 99.55531 35807 ft 432 kts 339°
2026-04-28 19:15 16.66260 99.53920 35809 ft 432 kts 339°
2026-04-28 19:16 16.72951 99.51649 35816 ft 433 kts 339°
2026-04-28 19:16 16.78682 99.49697 35818 ft 433 kts 339°
2026-04-28 19:17 16.84435 99.47744 35325 ft 436 kts 340°
2026-04-28 19:17 16.87325 99.46768 34857 ft 437 kts 340°
2026-04-28 19:17 16.90209 99.45793 34397 ft 434 kts 340°
2026-04-28 19:18 16.93070 99.44827 33949 ft 430 kts 340°
2026-04-28 19:18 16.95906 99.43868 33446 ft 427 kts 339°
2026-04-28 19:18 16.98722 99.42912 32931 ft 423 kts 339°
2026-04-28 19:18 17.01473 99.41977 32441 ft 420 kts 339°
2026-04-28 19:19 17.04242 99.41037 31947 ft 417 kts 339°
2026-04-28 19:19 17.06985 99.40108 31465 ft 413 kts 339°
2026-04-28 19:19 17.09715 99.39183 30991 ft 410 kts 339°
2026-04-28 19:19 17.12450 99.38256 30534 ft 407 kts 339°
2026-04-28 19:20 17.15098 99.37356 30082 ft 404 kts 338°
2026-04-28 19:20 17.17765 99.36447 29576 ft 401 kts 338°
2026-04-28 19:20 17.20410 99.35540 29054 ft 398 kts 338°
2026-04-28 19:20 17.23031 99.34643 28532 ft 395 kts 338°
2026-04-28 19:21 17.25635 99.33759 28024 ft 392 kts 338°
2026-04-28 19:21 17.28214 99.32882 27523 ft 388 kts 338°
2026-04-28 19:21 17.30776 99.32011 27029 ft 385 kts 338°
2026-04-28 19:21 17.33308 99.31151 26546 ft 382 kts 338°
2026-04-28 19:22 17.35829 99.30292 26068 ft 379 kts 338°
2026-04-28 19:22 17.37484 99.29727 25758 ft 377 kts 338°
2026-04-28 19:22 17.40806 99.28591 25160 ft 373 kts 338°
2026-04-28 19:22 17.43254 99.27756 24863 ft 367 kts 338°
2026-04-28 19:23 17.45669 99.26943 24570 ft 363 kts 339°
2026-04-28 19:23 17.48090 99.26236 24280 ft 362 kts 341°
2026-04-28 19:23 17.50532 99.25611 23987 ft 360 kts 342°
2026-04-28 19:23 17.52977 99.25028 23725 ft 359 kts 343°
2026-04-28 19:24 17.55404 99.24461 23441 ft 356 kts 343°
2026-04-28 19:24 17.57818 99.23894 23113 ft 354 kts 343°
2026-04-28 19:24 17.60216 99.23317 22788 ft 353 kts 343°
2026-04-28 19:24 17.62596 99.22728 22443 ft 351 kts 342°
2026-04-28 19:25 17.64963 99.22133 22074 ft 349 kts 342°
2026-04-28 19:25 17.67322 99.21536 21704 ft 348 kts 342°
2026-04-28 19:25 17.69669 99.20941 21291 ft 345 kts 342°
2026-04-28 19:25 17.71994 99.20353 20848 ft 344 kts 343°
2026-04-28 19:26 17.74322 99.19770 20400 ft 343 kts 343°
2026-04-28 19:26 17.76638 99.19190 19960 ft 342 kts 343°
2026-04-28 19:26 17.78948 99.18611 19519 ft 340 kts 343°
2026-04-28 19:26 17.81245 99.18035 19084 ft 339 kts 343°
2026-04-28 19:27 17.83537 99.17460 18650 ft 339 kts 343°
2026-04-28 19:27 17.85828 99.16884 18217 ft 339 kts 343°
2026-04-28 19:27 17.88120 99.16305 17741 ft 339 kts 343°
2026-04-28 19:27 17.90408 99.15727 17303 ft 337 kts 343°
2026-04-28 19:28 17.92684 99.15152 16880 ft 336 kts 343°
2026-04-28 19:28 17.94950 99.14580 16466 ft 335 kts 343°
2026-04-28 19:28 17.97186 99.14017 16046 ft 334 kts 344°
2026-04-28 19:28 17.99473 99.13442 15628 ft 333 kts 344°
2026-04-28 19:29 18.01729 99.12878 15216 ft 333 kts 344°
2026-04-28 19:29 18.03219 99.12504 14943 ft 333 kts 345°
2026-04-28 19:29 18.06229 99.11749 14394 ft 332 kts 345°
2026-04-28 19:29 18.08443 99.11192 14014 ft 331 kts 345°
2026-04-28 19:30 18.10641 99.10641 13802 ft 317 kts 345°
2026-04-28 19:30 18.12771 99.10106 13257 ft 313 kts 345°
2026-04-28 19:30 18.14831 99.09473 12772 ft 306 kts 336°
2026-04-28 19:30 18.16794 99.08546 12268 ft 311 kts 334°
2026-04-28 19:31 18.18767 99.07610 11862 ft 311 kts 334°
2026-04-28 19:31 18.20745 99.06678 11553 ft 308 kts 334°
2026-04-28 19:31 18.22678 99.05773 11266 ft 304 kts 334°
2026-04-28 19:31 18.24598 99.04874 10770 ft 300 kts 334°
2026-04-28 19:32 18.26492 99.03986 10232 ft 297 kts 334°
2026-04-28 19:32 18.28371 99.03102 9669 ft 295 kts 334°
2026-04-28 19:32 18.30234 99.02222 9096 ft 291 kts 334°
2026-04-28 19:32 18.32074 99.01351 8550 ft 288 kts 334°
2026-04-28 19:33 18.33888 99.00496 8097 ft 284 kts 334°
2026-04-28 19:33 18.35680 98.99653 7651 ft 281 kts 334°
2026-04-28 19:33 18.37426 98.98831 7459 ft 268 kts 334°
2026-04-28 19:33 18.39084 98.98051 7380 ft 255 kts 334°
2026-04-28 19:34 18.40647 98.97316 7279 ft 243 kts 334°
2026-04-28 19:34 18.42161 98.96606 7180 ft 235 kts 336°
2026-04-28 19:34 18.43766 98.96218 6870 ft 240 kts 354°
2026-04-28 19:34 18.45463 98.96186 6554 ft 240 kts 358°
2026-04-28 19:35 18.47109 98.96207 6257 ft 239 kts 358°
2026-04-28 19:35 18.48783 98.96218 5950 ft 234 kts 358°
2026-04-28 19:35 18.50361 98.96222 5664 ft 226 kts 358°
2026-04-28 19:35 18.51912 98.96226 5384 ft 219 kts 358°
2026-04-28 19:36 18.53414 98.96230 5106 ft 213 kts 358°
2026-04-28 19:36 18.54875 98.96233 4842 ft 207 kts 358°
2026-04-28 19:36 18.56294 98.96237 4587 ft 202 kts 358°
2026-04-28 19:36 18.57694 98.96240 4348 ft 199 kts 358°
2026-04-28 19:37 18.59071 98.96244 4077 ft 197 kts 358°
2026-04-28 19:37 18.59995 98.96246 3899 ft 197 kts 358°
2026-04-28 19:37 18.61801 98.96250 3574 ft 195 kts 358°
2026-04-28 19:37 18.63142 98.96254 3333 ft 191 kts 359°
2026-04-28 19:38 18.64461 98.96257 3094 ft 188 kts 359°
2026-04-28 19:38 18.65758 98.96261 2858 ft 185 kts 359°
2026-04-28 19:38 18.67034 98.96264 2631 ft 181 kts 359°
2026-04-28 19:38 18.68256 98.96267 2416 ft 169 kts 359°
2026-04-28 19:39 18.69374 98.96270 2197 ft 154 kts 359°
2026-04-28 19:39 18.70415 98.96273 2003 ft 146 kts 360°
2026-04-28 19:39 18.71415 98.96275 1818 ft 141 kts
2026-04-28 19:39 18.72382 98.96274 1616 ft 137 kts 359°
2026-04-28 19:40 18.73332 98.96263 1446 ft 137 kts
2026-04-28 19:40 18.74281 98.96276 1262 ft 137 kts
2026-04-28 19:40 18.75245 98.96284 1080 ft 138 kts
2026-04-28 19:40 18.76153 98.96286 1032 ft 117 kts
2026-04-28 19:41 18.76794 98.96288 1032 ft 68 kts
2026-04-28 19:41 18.77072 98.96289 1032 ft 13 kts 359°
2026-04-28 19:41 18.77135 98.96320 1032 ft 9 kts 58°
2026-04-28 19:41 18.77140 98.96377 1032 ft 7 kts 95°
2026-04-28 19:42 18.77138 98.96426 1032 ft 6 kts 91°
2026-04-28 19:42 18.77137 98.96466 1032 ft 5 kts 90°
2026-04-28 19:42 18.77131 98.96522 1032 ft 12 kts 105°
2026-04-28 19:42 18.77102 98.96574 1032 ft 12 kts 131°
2026-04-28 19:43 18.77021 98.96632 1032 ft 10 kts 156°
2026-04-28 19:43 18.76959 98.96646 1032 ft 9 kts 176°
2026-04-28 19:43 18.76902 98.96647 1032 ft 8 kts 180°
2026-04-28 19:43 18.76856 98.96657 1032 ft 6 kts 142°
2026-04-28 19:44 18.76843 98.96694 1032 ft 5 kts 95°
2026-04-28 19:44 18.76843 98.96724 1032 ft 2 kts 89°
2026-04-28 19:44 18.76843 98.96730 1032 ft 0 kts 89°